Location: Peach Mountain Observatory
(42.3967°N, 83.9367°W)
Time: 21:41:09
(UTC-04:00)

deb Explorer IX - Pass Details

Date: 28 January 2020
Orbit: 548 x 1100 km, 38.8° (Epoch: 08 April)

Event Time Altitude Azimuth Distance (km) Brightness Sun altitude
Rises 03:32:45 0° 274° (W) 3,909 - -47.8°
Reaches altitude 10° 03:36:42 10° 255° (WSW) 2,923 - -47.1°
Maximum altitude 03:40:50 16° 220° (SW) 2,423 - -46.4°
Drops below altitude 10° 03:44:49 10° 184° (S) 2,780 - -45.7°
Sets 03:48:26 0° 164° (SSE) 3,630 - -45.1°
